User: anonymous   Login
Location: Bangkok
(13.7500°N, 100.5170°E)
Time: 06:39:04
(UTC+07:00)
Language:

SPOT 1/Viking Rocket - Orbit

View from above orbital plane
View from above orbital plane
View from above satellite
View from above satellite

Ground track
Ground track

The orbit data is extracted from the following two-line orbital elements,

1 16615U 86019C   14302.77949781  .00000253  00000-0  11253-3 0  5299
2 16615 098.7419 354.8954 0011319 356.2762 140.6296 14.31333778501940
Epoch (UTC): 29 October 2014 18:42:28
Eccentricity: 0.0011319
inclination: 98.7419°
perigee height: 779 km
apogee height: 795 km
right ascension of ascending node: 354.8954°
argument of perigee: 356.2762°
revolutions per day: 14.31333778
mean anomaly at epoch: 140.6296°
orbit number at epoch: 50194

The dashed part of the orbit path shows where the satellite is in the earth's shadow,  

DLR